ATLAS 5 CENTAUR DEB, 44693

Orbit data source: Space-Track

ATLAS 5 CENTAUR DEB, 44693 is space debris in HEO originally from a launch on Wed, 17 Oct 2018 UTC launched from the Air Force Eastern Test Range (AFETR). Debris objects in space refer to the collection of defunct objects orbiting the Earth. Examples of debris include non-operational satellites, rocket bodies, and fragments generated from explosions, collisions, or faulty payload assembly.

Loading next visibility...
Identifier
44693, 2018-079BF
Orbit
HEO
Country
Flag of USUS
Related business
Flag of USUnited Launch Alliance/Lockheed Martin (US)
Manufacturer
ULA Decatur
Mission
Spacecraft
Bus & Motor
Unknown
Mass
Unknown
Launch date (UTC)
2018-10-17 (8 years ago)
Launch vehicle
Unknown
Launch site
Air Force Eastern Test Range (AFETR)
Object type
Payload
Rocket body
Debris
Shape & HBR
Unknown shape, 1.1 m
Radar Cross Section
Medium (>0.1 m² and <1 m²)

Expand to show TLE details & history
Last TLE update: 1 day ago

TLE from 1 day ago
0 ATLAS 5 CENTAUR DEB
1 44693U 18079BF  26218.91682037 -.00000135  00000-0  00000-0 0  9996
2 44693  13.5528  36.6844 4676101 306.9678  18.5831  1.78457253 47781
Epoch: 2026-08-06T22:00Z
TLE epoch observation values (Epoch: 2026-08-06T22:00:13.279Z)
Latitude
-0.00003°
Longitude
111.22227°
Altitude
11,132.575 km
Speed
5.625 km/s
True Right ascension
02h 26m 54s
True Declination
0° 00' 00"
Sunlit
Object was in daylight at epoch
Visualization orbit readout
Latitude
Unknown
Longitude
Unknown
Altitude
Unknown
Speed
Unknown
Apparent Right ascension
Unknown
Apparent Declination
Unknown
Sunlit
N/A
Visualization observer readout
Local Sidereal Time
21:27:24
Azimuth
Unknown
Elevation
Unknown
Doppler factor
Unknown
Orbital elements
Apogee altitude
35,761.18 km
Perigee altitude
8,908.312 km
Semi-major axis
28,712.883 km
Eccentricity
0.46761
Inclination
13.5528°
RAAN
36.6844°
Arg. of periapsis
306.9678°
True anomaly
52.79471°
Mean anomaly
18.5831°
Eccentric anomaly
33.2878°
Mean motion
0.4461 °/min
Orbital period
807 mins
BSTAR
0
Loading maneuver chart data...
Computing Atmospheric mass density...

Documentation

Showing up to 5 results
|